User: anonymous   Login
Location: Starry Hill Observatory
(46.8582°N, 122.3590°W)
Time: 18:55:53
(UTC-08:00)
Language:

Cosmos 1300 Rocket - Orbit

View from above orbital plane
View from above orbital plane
View from above satellite
View from above satellite

Ground track
Ground track

The orbit data is extracted from the following two-line orbital elements,

1 12786U 81082B   15059.45649236  .00000523  00000-0  59261-4 0  9999
2 12786 082.4879 039.0125 0018631 142.3201 217.9323 14.84374028810227
Epoch (UTC): 28 February 2015 10:57:20
Eccentricity: 0.0018631
inclination: 82.4879°
perigee height: 602 km
apogee height: 628 km
right ascension of ascending node: 39.0125°
argument of perigee: 142.3201°
revolutions per day: 14.84374028
mean anomaly at epoch: 217.9323°
orbit number at epoch: 81022

The dashed part of the orbit path shows where the satellite is in the earth's shadow,  

DLR